FW1589 Weather Reports


Display with metric or nautical units.
time (UTC)temp
F
wind
direction
speed
MPH
gust
MPH
rain 1hr
in
rain 24hr
in
rain mn
in
humidity
%
barometer
mb
20260505124307 52 201 1.0 4.0 0.00 0.30 0.14 91 996.9
20260505123803 52 201 0.0 4.0 0.00 0.30 0.14 91 996.9
20260505123303 52 203 0.0 2.0 0.00 0.30 0.14 91 996.9
20260505122800 52 203 1.0 2.0 0.00 0.30 0.14 91 997.0
20260505122302 52 185 0.0 3.0 0.00 0.30 0.14 91 996.9
20260505121800 52 185 0.0 3.0 0.00 0.30 0.14 91 997.0
20260505121258 52 184 0.0 2.0 0.00 0.30 0.14 91 997.0
20260505120757 52 184 0.0 3.0 0.00 0.30 0.14 91 997.0
20260505115753 52 186 0.0 2.0 0.00 0.30 0.14 91 996.9
20260505115253 52 186 0.0 4.0 0.00 0.30 0.14 91 996.9
20260505114252 52 185 1.0 3.0 0.00 0.30 0.14 91 996.8
20260505113751 52 184 1.0 3.0 0.00 0.30 0.14 91 996.9
20260505113253 52 185 1.0 4.0 0.00 0.30 0.14 91 996.8
20260505112752 52 173 1.0 5.0 0.00 0.30 0.14 91 996.8
20260505112251 52 163 2.0 7.0 0.00 0.30 0.14 91 996.9
20260505111251 52 153 1.0 3.0 0.00 0.30 0.14 91 997.0
20260505110239 52 165 0.0 2.0 0.00 0.30 0.14 91 997.1
20260505102150 51 163 0.0 2.0 0.01 0.30 0.14 90 997.2
20260505101645 51 163 0.0 2.0 0.01 0.30 0.14 90 997.1
20260505100645 51 150 1.0 5.0 0.02 0.30 0.14 90 996.9
20260505100144 51 148 2.0 5.0 0.02 0.30 0.14 90 996.9
20260505095641 51 163 1.0 5.0 0.02 0.30 0.14 90 997.0
20260505095141 52 180 1.0 2.0 0.03 0.30 0.14 90 997.1
20260505094141 52 178 1.0 5.0 0.04 0.30 0.14 90 997.1
20260505093140 52 175 1.0 3.0 0.04 0.30 0.14 90 997.2
20260505092640 52 175 1.0 3.0 0.04 0.30 0.14 90 997.4
20260505091638 52 194 1.0 4.0 0.03 0.29 0.13 90 997.4
20260505091137 52 194 2.0 6.0 0.03 0.29 0.13 90 997.4
20260505090638 52 168 1.0 6.0 0.03 0.28 0.12 90 997.4
20260505090137 52 193 0.0 4.0 0.03 0.28 0.12 90 997.4
20260505085639 52 178 0.0 2.0 0.04 0.28 0.12 89 997.6
20260505084635 52 255 0.0 0.0 0.05 0.27 0.11 89 997.7
20260505084134 52 292 0.0 0.0 0.06 0.26 0.10 89 997.6
20260505083635 52 292 0.0 0.0 0.07 0.26 0.10 89 997.7
20260505083134 52 292 0.0 0.0 0.08 0.26 0.10 89 997.7
20260505082634 52 292 0.0 0.0 0.08 0.26 0.10 89 997.7
20260505082135 52 292 0.0 0.0 0.08 0.26 0.10 89 997.7
20260505081635 52 292 0.0 0.0 0.09 0.26 0.10 89 997.6
20260505081135 52 292 0.0 0.0 0.09 0.26 0.10 89 997.6
20260505080631 52 294 0.0 0.0 0.09 0.25 0.09 89 997.8
20260505080131 52 294 0.0 0.0 0.09 0.25 0.09 89 997.8
20260505075629 52 294 0.0 0.0 0.08 0.24 0.08 89 997.7
20260505075131 52 298 0.0 0.0 0.07 0.23 0.07 89 997.8
20260505074630 52 299 0.0 0.0 0.06 0.22 0.06 89 997.8
20260505074130 52 299 0.0 0.0 0.05 0.20 0.05 89 997.9
20260505073131 52 306 0.0 1.0 0.03 0.18 0.02 89 997.6
20260505072129 52 308 0.0 1.0 0.03 0.18 0.02 89 997.8
20260505071630 52 310 0.0 1.0 0.03 0.17 0.01 88 997.9
20260505070130 52 348 0.0 1.0 0.03 0.16 0.00 88 998.1
20260505065630 52 348 0.0 2.0 0.04 0.16 0.16 88 998.0
20260505065130 51 348 1.0 3.0 0.05 0.16 0.16 88 998.0
20260505064630 51 350 1.0 3.0 0.06 0.16 0.16 88 997.9
20260505063624 51 355 0.0 3.0 0.06 0.15 0.15 88 997.7
20260505063117 52 0 0.0 2.0 0.07 0.15 0.15 88 997.8
20260505062612 52 5 0.0 0.0 0.07 0.15 0.15 87 997.6
20260505062106 52 5 0.0 1.0 0.08 0.15 0.15 87 997.6
20260505061600 52 5 0.0 1.0 0.07 0.14 0.15 87 997.6
20260505061057 52 5 0.0 1.0 0.08 0.14 0.14 87 997.6
20260505060557 52 5 0.0 1.0 0.08 0.14 0.14 87 997.6
20260505060056 52 5 0.0 1.0 0.08 0.13 0.13 87 997.7
20260505055553 52 5 0.0 2.0 0.07 0.12 0.12 87 997.8
20260505055054 52 5 0.0 2.0 0.06 0.11 0.11 87 997.9
20260505054053 52 337 0.0 2.0 0.05 0.09 0.10 87 997.9
20260505053553 53 315 0.0 2.0 0.06 0.09 0.09 87 997.9
20260505053051 53 298 0.0 2.0 0.06 0.08 0.08 87 997.8
20260505052550 53 0 0.0 1.0 0.05 0.07 0.08 87 997.7
20260505051548 53 0 0.0 1.0 0.06 0.07 0.07 87 997.6
20260505051045 53 0 0.0 1.0 0.05 0.06 0.06 86 997.7
20260505050546 53 0 0.0 1.0 0.06 0.06 0.06 86 997.8
20260505041522 54 338 0.0 1.0 0.01 0.01 0.01 85 998.3
20260505041008 54 338 1.0 3.0 0.01 0.01 0.01 85 998.2
20260505040502 54 338 1.0 3.0 0.00 0.00 0.00 85 998.1
20260505035955 54 345 0.0 4.0 0.00 0.00 0.00 85 998.0
20260505035450 54 330 0.0 4.0 0.00 0.00 0.00 85 997.9
20260505034944 54 350 0.0 2.0 0.00 0.00 0.00 85 997.7
20260505034438 54 350 0.0 3.0 0.00 0.00 0.00 85 997.7
20260505033426 54 327 1.0 4.0 0.00 0.00 0.00 84 997.3
20260505032920 55 333 0.0 3.0 0.00 0.00 0.00 84 997.2
20260505032414 55 331 0.0 3.0 0.00 0.00 0.00 84 997.2
20260505031908 55 339 1.0 3.0 0.00 0.00 0.00 84 997.1
20260505031402 55 284 1.0 5.0 0.00 0.00 0.00 84 997.1
20260505030855 55 347 1.0 5.0 0.00 0.00 0.00 84 997.2
20260505030350 55 258 1.0 5.0 0.00 0.00 0.00 84 997.1
20260505025844 55 342 2.0 9.0 0.00 0.00 0.00 83 997.2
20260505025338 55 331 2.0 9.0 0.00 0.00 0.00 83 997.1
20260505024832 55 347 1.0 4.0 0.00 0.00 0.00 83 997.1
20260505024326 55 329 1.0 4.0 0.00 0.00 0.00 82 997.2
20260505023821 56 333 0.0 3.0 0.00 0.00 0.00 82 997.2
20260505023314 56 275 1.0 3.0 0.00 0.00 0.00 81 997.2
20260505022808 56 316 1.0 4.0 0.00 0.00 0.00 81 997.3
20260505022301 56 339 1.0 4.0 0.00 0.00 0.00 80 997.2
20260505021756 56 270 1.0 5.0 0.00 0.00 0.00 79 997.2
20260505021250 56 264 1.0 6.0 0.00 0.00 0.00 79 997.1
20260505020745 56 331 1.0 6.0 0.00 0.00 0.00 78 997.1
20260505020238 56 331 1.0 4.0 0.00 0.00 0.00 78 997.1
20260505015732 56 355 1.0 3.0 0.00 0.00 0.00 78 997.2
20260505015225 56 347 1.0 4.0 0.00 0.00 0.00 77 997.3
20260505014722 56 343 1.0 4.0 0.00 0.00 0.00 76 997.3
20260505014214 56 300 1.0 6.0 0.00 0.00 0.00 75 997.4
20260505013708 56 286 3.0 10.0 0.00 0.00 0.00 75 997.6
20260505013201 56 0 3.0 10.0 0.00 0.00 0.00 76 997.6
20260505012150 57 259 1.0 7.0 0.00 0.00 0.00 80 997.5
20260505011644 57 259 1.0 4.0 0.00 0.00 0.00 82 997.4
20260505011138 57 301 1.0 3.0 0.00 0.00 0.00 82 997.4
20260505010638 57 252 2.0 7.0 0.00 0.00 0.00 81 997.5
20260505010136 57 208 2.0 7.0 0.00 0.00 0.00 81 997.6
20260505005635 57 212 1.0 6.0 0.00 0.00 0.00 81 997.6
20260505005133 57 210 2.0 7.0 0.00 0.00 0.00 81 997.6
20260505004633 57 310 2.0 7.0 0.00 0.00 0.00 81 997.6
20260505004132 57 199 2.0 7.0 0.00 0.00 0.00 81 997.5
20260505003632 58 227 2.0 7.0 0.00 0.00 0.00 80 997.7
20260505003130 58 273 2.0 7.0 0.00 0.00 0.00 80 997.7
20260505002629 58 263 2.0 7.0 0.00 0.00 0.00 80 997.8
20260505001128 58 279 1.0 4.0 0.00 0.00 0.00 80 997.7
20260505000628 58 242 1.0 3.0 0.00 0.00 0.00 80 997.7
20260505000126 58 243 1.0 4.0 0.00 0.00 0.00 79 997.7
20260504235626 58 238 2.0 5.0 0.00 0.00 0.00 79 997.7
20260504235126 58 213 2.0 6.0 0.00 0.00 0.00 79 997.7
20260504234626 58 296 2.0 6.0 0.00 0.00 0.00 80 997.6
20260504234126 58 208 2.0 5.0 0.00 0.00 0.00 80 997.7
20260504233621 58 205 3.0 8.0 0.00 0.00 0.00 79 997.7
20260504233121 58 267 3.0 8.0 0.00 0.00 0.00 79 997.6
20260504231121 59 202 2.0 8.0 0.00 0.00 0.00 80 997.6
20260504230620 59 273 3.0 8.0 0.00 0.00 0.00 80 997.6
20260504230120 59 226 3.0 8.0 0.00 0.00 0.00 79 997.6
20260504225621 59 269 3.0 8.0 0.00 0.00 0.00 79 997.5
20260504225121 59 250 3.0 8.0 0.00 0.00 0.00 78 997.5
20260504224620 59 217 3.0 6.0 0.00 0.00 0.00 78 997.6
20260504224121 60 197 2.0 6.0 0.00 0.00 0.00 77 997.6
20260504223120 60 230 3.0 8.0 0.00 0.00 0.00 76 997.8
20260504222622 60 197 3.0 7.0 0.00 0.00 0.00 75 997.7
20260504222120 61 194 3.0 7.0 0.00 0.00 0.00 74 997.7
20260504221622 62 202 2.0 4.0 0.00 0.00 0.00 73 997.8
20260504221115 62 246 3.0 6.0 0.00 0.00 0.00 73 997.9
20260504220610 63 254 3.0 6.0 0.00 0.00 0.00 73 997.9
20260504220104 63 202 3.0 6.0 0.00 0.00 0.00 73 997.8
20260504215558 63 213 3.0 8.0 0.00 0.00 0.00 73 997.8
20260504215058 62 273 3.0 8.0 0.00 0.00 0.00 74 997.9
20260504214557 62 215 3.0 7.0 0.00 0.00 0.00 76 997.9
20260504214058 61 261 4.0 8.0 0.00 0.00 0.00 75 997.8
20260504213555 61 247 4.0 9.0 0.00 0.00 0.00 74 997.9
20260504213054 61 225 3.0 9.0 0.00 0.00 0.00 73 997.8
20260504212556 61 276 3.0 7.0 0.00 0.00 0.00 75 997.9
20260504212054 61 260 3.0 7.0 0.00 0.00 0.00 75 997.9
20260504211554 61 232 3.0 7.0 0.00 0.00 0.00 75 998.0
20260504211055 61 224 3.0 7.0 0.00 0.00 0.00 76 997.9
20260504210051 61 221 3.0 9.0 0.00 0.00 0.00 75 997.8
20260504205552 61 227 3.0 8.0 0.00 0.00 0.00 75 997.9
20260504205051 61 207 3.0 8.0 0.00 0.00 0.00 74 998.0
20260504204051 61 229 4.0 7.0 0.00 0.00 0.00 74 998.1
20260504203552 60 215 4.0 8.0 0.00 0.00 0.00 76 998.1
20260504203051 60 237 4.0 8.0 0.00 0.00 0.00 75 998.0
20260504202552 61 210 4.0 8.0 0.00 0.00 0.00 74 998.0
20260504202046 61 222 4.0 8.0 0.00 0.00 0.00 72 997.9
20260504201548 62 284 3.0 8.0 0.00 0.00 0.00 72 997.9
20260504201048 62 213 4.0 8.0 0.00 0.00 0.00 71 997.8
20260504200547 62 181 3.0 9.0 0.00 0.00 0.00 70 997.8
20260504200047 62 268 3.0 11.0 0.00 0.00 0.00 71 997.9
20260504195549 62 249 3.0 11.0 0.00 0.00 0.00 69 998.0
20260504195046 62 238 3.0 7.0 0.00 0.00 0.00 69 998.0
20260504194547 62 210 4.0 7.0 0.00 0.00 0.00 70 998.1
20260504194048 62 236 4.0 8.0 0.00 0.00 0.00 70 998.1
20260504193042 62 204 4.0 10.0 0.00 0.00 0.00 66 998.0
20260504192542 62 258 4.0 9.0 0.00 0.00 0.00 65 997.9
20260504192042 63 264 4.0 9.0 0.00 0.00 0.00 67 998.0
20260504191540 63 244 4.0 8.0 0.00 0.00 0.00 67 998.0
20260504191040 63 182 3.0 8.0 0.00 0.00 0.00 66 998.1
20260504190540 63 242 4.0 10.0 0.00 0.00 0.00 66 998.1
20260504190039 63 230 4.0 10.0 0.00 0.00 0.00 65 998.2
20260504185537 63 264 4.0 10.0 0.00 0.00 0.00 67 998.1
20260504185035 63 260 4.0 10.0 0.00 0.00 0.00 69 998.1
20260504184533 62 271 4.0 8.0 0.00 0.00 0.00 70 998.1
20260504184032 62 277 3.0 7.0 0.00 0.00 0.00 68 998.1
20260504183031 62 265 3.0 10.0 0.00 0.00 0.00 69 998.1
20260504182530 62 198 4.0 9.0 0.00 0.00 0.00 69 998.1
20260504182030 62 242 4.0 9.0 0.00 0.00 0.00 71 998.0
20260504181530 62 273 4.0 8.0 0.00 0.00 0.00 70 998.0
20260504181029 62 240 3.0 8.0 0.00 0.00 0.00 71 997.9
20260504180526 62 196 3.0 6.0 0.00 0.00 0.00 69 997.9
20260504180028 62 223 3.0 6.0 0.00 0.00 0.00 69 997.9
20260504175524 62 248 3.0 7.0 0.00 0.00 0.00 70 998.0
20260504175024 62 236 3.0 7.0 0.00 0.00 0.00 70 998.0
20260504174525 62 292 2.0 6.0 0.00 0.00 0.00 71 997.9
20260504174025 62 304 3.0 6.0 0.00 0.00 0.00 73 997.8
20260504173525 61 207 3.0 7.0 0.00 0.00 0.00 72 997.8
20260504173023 61 215 4.0 8.0 0.00 0.00 0.00 74 997.8
20260504172522 61 225 4.0 8.0 0.00 0.00 0.00 74 997.7
20260504172022 60 184 3.0 6.0 0.00 0.00 0.00 76 997.8
20260504170521 59 168 3.0 7.0 0.00 0.00 0.00 79 997.8
20260504160427 56 270 1.0 3.0 0.00 0.00 0.00 86 997.5
20260504150820 54 238 0.0 0.0 0.00 0.00 0.00 89 997.5
20260504150315 54 239 0.0 0.0 0.00 0.00 0.00 90 997.5
20260504141214 52 205 0.0 0.0 0.00 0.00 0.00 89 997.4
20260504140709 52 205 0.0 0.0 0.00 0.00 0.00 89 997.3
20260504140203 52 205 0.0 0.0 0.00 0.00 0.00 89 997.3